This demonstration page uses our WeatherBlox Daily Observations layout. Learn more.

38.88101, -77.10428

Hourly Observations for June 18, 2016

Temp ( °F °C ) Dew Point ( °F °C ) Humidity (%) Winds ( mph kmh ) Pressure ( in mb ) Visibility ( mi km ) Precip ( " mm )
12:52 am 00:52 Mostly Cloudy 70 21.1 57 13.9 64 64 ENE 7 11 30.11 1020 10 16.0934 0 0
1:52 am 01:52 Mostly Cloudy 69 20.6 58 14.4 68 68 VRB 3 6 30.11 1020 10 16.0934 0 0
2:52 am 02:52 Mostly Cloudy 68 20 58 14.4 70 70 NE 9 15 30.13 1020 10 16.0934 0 0
3:52 am 03:52 Cloudy 68 20 58 14.4 70 70 NE 3 6 30.13 1020 10 16.0934 0 0
4:52 am 04:52 Partly Cloudy 67 19.4 57 13.9 71 71 NNE 6 9 30.14 1021 10 16.0934 0 0
5:52 am 05:52 Mostly Cloudy 66 18.9 57 13.9 73 73 NE 6 9 30.17 1022 10 16.0934 0 0
6:52 am 06:52 Mostly Cloudy 68 20 58 14.4 70 70 NNE 5 7 30.19 1023 10 16.0934 0 0
7:52 am 07:52 Mostly Cloudy 70 21.1 58 14.4 66 66 ENE 6 9 30.22 1023 10 16.0934 0 0
8:52 am 08:52 Mostly Sunny 72 22.2 58 14.4 61 61 Calm 30.24 1024 10 16.0934 0 0
9:52 am 09:52 Mostly Sunny 75 23.9 56 13.3 52 52 VRB 3 6 30.23 1024 10 16.0934 0 0
10:52 am 10:52 Sunny 78 25.6 54 12.2 43 43 ENE 5 7 30.25 1025 10 16.0934 0 0
11:52 am 11:52 Mostly Sunny 81 27.2 54 12.2 39 39 Calm 30.27 1025 10 16.0934 0 0
12:52 pm 12:52 Mostly Sunny 82 27.8 54 12.2 38 38 VRB 5 7 30.27 1025 10 16.0934 0 0
1:52 pm 13:52 Mostly Sunny 84 28.9 56 13.3 38 38 undefined N/A 30.27 1025 10 16.0934 0 0
2:52 pm 14:52 Partly Cloudy 84 28.9 53 11.7 34 34 SSE 6 9 30.27 1025 10 16.0934 0 0
3:52 pm 15:52 Mostly Sunny 84 28.9 53 11.7 34 34 S 7 11 30.25 1025 10 16.0934 0 0
4:52 pm 16:52 Partly Cloudy 85 29.4 51 10.6 31 31 S 9 15 30.25 1024 10 16.0934 0 0
5:52 pm 17:52 Partly Cloudy 82 27.8 54 12.2 38 38 S 14 22 30.25 1024 10 16.0934 0 0
6:52 pm 18:52 Partly Cloudy 81 27.2 55 12.8 41 41 S 15 24 30.25 1024 10 16.0934 0 0
7:52 pm 19:52 Mostly Cloudy 78 25.6 51 10.6 39 39 S 12 19 30.26 1025 10 16.0934 0 0
8:52 pm 20:52 Mostly Cloudy 76 24.4 51 10.6 42 42 SSW 9 15 30.27 1025 10 16.0934 0 0
9:52 pm 21:52 Mostly Cloudy 73 22.8 52 11.1 48 48 SSW 8 13 30.3 1026 10 16.0934 0 0
10:52 pm 22:52 Mostly Cloudy 72 22.2 54 12.2 53 53 SSW 9 15 30.32 1027 10 16.0934 0 0
11:52 pm 23:52 Mostly Cloudy 71 21.7 56 13.3 59 59 S 9 15 30.33 1027 10 16.0934 0 0

Powered by AerisWeather